Flag for Poland Weather past 2 weeks in Częstochowa, Poland

Now
72 °F

Sunny.


Feels Like: 76 °F
Forecast: 49 / 70 °F
Wind: 17 mph from West

Location: Katowice Airport

Current Time: Jul 30, 2015 at 6:33:54 PM

Latest Report: Jul 30, 2015 at 6:00 PM


Visibility: 10 mi

Pressure: 29.89 "Hg

Humidity: 27%

Dew point: 36 °F

Location of CzęstochowaLocation

Historic Weather in Częstochowa — Graph

°F

Częstochowa temperature yesterday

Maximum temperature yesterday: 73 °F (at 4:30 PM)
Minimum temperature yesterday: 55 °F (at 3:00 AM)
Average temperature yesterday: 64 °F

Past Weeks' High & Low Weather Summary

 TemperatureHumidityPressure
High91 °F (Jul 25, 1:00 PM)100% (Jul 15, 11:30 PM)30.12 "Hg (Jul 15, 11:30 PM)
Low50 °F (Jul 16, 4:30 AM)27% (Jul 30, 4:30 PM)29.65 "Hg (Jul 27, 6:30 PM)
Average70 °F65%29.91 "Hg
* Reported Jul 15 5:00 PM — Jul 30 5:30 PM, Częstochowa, Weather by CustomWeather, © 2015

Note: Actual official high and low records may vary slightly from our data, if they occured in-between our weather recording intervals... More about our weather records

Advertising

Częstochowa weather history for previous 24 hours

 ConditionsComfort  
Time TempWeatherWind HumidityBarometerVisibility
5:30 PM
Thu, Jul 30
72 °FSunny.17 mph29%29.89 "Hg10 mi
5:00 PM72 °FSunny.20 mph29%29.89 "Hg10 mi
4:30 PM72 °FPassing clouds.22 mph27%29.89 "HgN/A
4:00 PM72 °FPassing clouds.18 mph31%29.89 "HgN/A
3:30 PM72 °FSunny.21 mph29%29.89 "Hg10 mi
3:00 PM72 °FSunny.18 mph31%29.89 "Hg10 mi
2:30 PM72 °FPassing clouds.18 mph33%29.89 "HgN/A
2:00 PM72 °FPassing clouds.17 mph31%29.89 "HgN/A
1:30 PM70 °FSunny.20 mph31%29.89 "Hg10 mi
1:00 PM70 °FPassing clouds.21 mph35%29.89 "HgN/A
12:30 PM70 °FPassing clouds.18 mph35%29.89 "HgN/A
12:00 PM68 °FPassing clouds.17 mph40%29.89 "HgN/A
11:30 AM66 °FPassing clouds.20 mph43%29.89 "HgN/A
11:00 AM66 °FPassing clouds.18 mph46%29.92 "HgN/A
10:30 AM66 °FPassing clouds.18 mph43%29.89 "HgN/A
10:00 AM64 °FSunny.20 mph52%29.92 "Hg10 mi
9:30 AM63 °FSunny.21 mph56%29.89 "Hg10 mi
9:00 AM63 °FSunny.17 mph56%29.89 "Hg10 mi
8:30 AM61 °FSunny.14 mph63%29.89 "Hg10 mi
8:00 AM59 °FSunny.13 mph72%29.89 "Hg10 mi
7:30 AM57 °FSunny.10 mph77%29.89 "Hg10 mi
7:00 AM55 °FSunny.7 mph82%29.89 "Hg10 mi
6:30 AM54 °FSunny.7 mph88%29.89 "Hg10 mi
5:30 AM50 °FClear.6 mph94%29.89 "Hg10 mi
5:00 AM52 °FClear.7 mph88%29.89 "Hg10 mi
4:30 AM54 °FClear.9 mph88%29.86 "Hg10 mi
4:00 AM52 °FClear.5 mph94%29.86 "Hg10 mi
3:30 AM54 °FClear.7 mph94%29.86 "Hg10 mi
3:00 AM54 °FClear.9 mph94%29.86 "Hg10 mi
2:30 AM55 °FClear.8 mph88%29.86 "Hg10 mi
2:00 AM55 °FClear.10 mph88%29.86 "Hg10 mi
1:30 AM57 °FPassing clouds.9 mph82%29.86 "HgN/A
1:00 AM55 °FPartly cloudy.6 mph94%29.83 "HgN/A
12:30 AM57 °FPartly cloudy.5 mph88%29.83 "HgN/A
12:00 AM57 °FPartly cloudy.6 mph88%29.83 "HgN/A
11:30 PM
Wed, Jul 29
57 °FSprinkles. Passing clouds.10 mph94%29.83 "HgN/A
11:00 PM61 °FSprinkles. Passing clouds.15 mph83%29.83 "Hg4 mi
10:30 PM66 °FClear.12 mph60%29.77 "Hg10 mi
10:00 PM66 °FClear.10 mph56%29.77 "Hg10 mi
9:30 PM66 °FSunny.8 mph56%29.77 "Hg10 mi
9:00 PM66 °FSunny.8 mph56%29.77 "Hg10 mi
8:30 PM68 °FSunny.6 mph53%29.77 "Hg10 mi
8:00 PM70 °FSunny.10 mph46%29.74 "Hg10 mi
7:30 PM72 °FSunny.10 mph44%29.77 "Hg10 mi
7:00 PM70 °FSunny.13 mph46%29.74 "Hg10 mi
6:30 PM72 °FSunny.10 mph47%29.74 "Hg10 mi
6:00 PM70 °FPassing clouds.13 mph46%29.77 "HgN/A
Weather by CustomWeather, © 2015

See weather overviewHow to use our weather pages